Tracking 29967 objects as of 6-Dec-2024
HD Live streaming from Space Station
objects crossing your sky now

PSLV DEB

Track PSLV DEB now!
10-day predictions


NORAD ID: 27585
Int'l Code: 2001-049ND
Perigee: 590.3 km
Apogee: 664.4 km
Inclination: 98.3 °
Period: 97.1 minutes
Semi major axis: 6998 km
RCS: 0.0014 m2 (small)
Launch date: October 22, 2001
Source: India (IND)
Launch site: SRIHARIKOTA (SRI)

Note: This is SATELLITE DEBRIS
Your satellite tracking list
Your tracking list is empty




NASA's NSSDC Master Catalog

Two Line Element Set (TLE):
1 27585U 01049ND  24340.45987653  .00006783  00000-0  82338-3 0  9992
2 27585  98.3159 338.2513 0052918 298.4717  61.1170 14.82897322219084
Source of the keplerian elements: AFSPC